Location: Meanaryar
(48.4161°N, 4.7315°W)
Time: 17:13:35
(UTC+00:00)

USA 238 - Pass Details

Date: 18 September 2020
Orbit: 1006 x 1206 km, 63.4° (Epoch: 28 October)

Event Time Altitude Azimuth Distance (km) Brightness Sun altitude
Rises 19:30:24 0° 317° (NW) 3,918 7.7 -11.6°
Reaches altitude 10° 19:33:05 10° 322° (NW) 2,987 6.9 -12.1°
Maximum altitude 19:40:09 59° 41° (NE) 1,312 4.0 -13.2°
Enters shadow 19:45:45 18° 117° (ESE) 2,520 5.0 -14.1°
